When you browse on this site, cookies collect data to enhance your experience and personalize the content and advertising you see.
Visit our Privacy Policy to learn more. By continuing to use the site, you agree to this use of cookies and data.
  • In Lithuania
  • List of Countries
  • For 7 days
  • Water Temperature
  • Satellite Maps
  • Weather Map
  • Weather Widgets
  • user-avatar
    Login

    Hourly Weather Viedma

    Today, 25 May, Saturday

    Time Temperature Precipitation Wind Pressure Humidity
    00:00 +14°C° 0 mm 2 mps 752 mmHg 29%
    01:00 +14°C° 0 mm 2 mps 752 mmHg 29%
    02:00 +14°C° 0 mm 2 mps 752 mmHg 29%
    03:00 +13°C° 0 mm 2 mps 752 mmHg 28%
    04:00 +13°C° 0 mm 2 mps 752 mmHg 28%
    05:00 +13°C° 0 mm 2 mps 752 mmHg 28%
    06:00 +13°C° 0 mm 2 mps 752 mmHg 28%
    07:00 +13°C° 0 mm 2 mps 753 mmHg 28%
    08:00 +13°C° 0 mm 2 mps 753 mmHg 29%
    09:00 +15°C° 0 mm 2 mps 753 mmHg 26%
    10:00 +17°C° 0 mm 2 mps 753 mmHg 24%
    11:00 +19°C° 0 mm 2 mps 753 mmHg 22%
    12:00 +19°C° 0 mm 3 mps 752 mmHg 25%
    13:00 +20°C° 0 mm 4 mps 752 mmHg 28%
    14:00 +21°C° 0 mm 4 mps 752 mmHg 30%
    15:00 +20°C° 0 mm 4 mps 752 mmHg 35%
    16:00 +19°C° 0 mm 4 mps 751 mmHg 40%
    17:00 +18°C° 0 mm 4 mps 751 mmHg 45%
    18:00 +18°C° 0 mm 4 mps 752 mmHg 46%
    19:00 +17°C° 0 mm 4 mps 752 mmHg 47%
    20:00 +17°C° 0 mm 4 mps 752 mmHg 47%
    21:00 +15°C° 0 mm 4 mps 752 mmHg 44%
    22:00 +16°C° 0 mm 3 mps 752 mmHg 41%
    23:00 +16°C° 0 mm 3 mps 752 mmHg 37%

    Tomorrow, 26 May, Sunday

    Time Temperature Precipitation Wind Pressure Humidity
    00:00 +14°C° 0 mm 3 mps 752 mmHg 36%
    01:00 +14°C° 0 mm 3 mps 752 mmHg 35%
    02:00 +13°C° 0 mm 3 mps 752 mmHg 34%
    03:00 +13°C° 0 mm 4 mps 753 mmHg 46%
    04:00 +13°C° 0 mm 5 mps 753 mmHg 57%
    05:00 +13°C° 0 mm 6 mps 754 mmHg 69%
    06:00 +13°C° 0 mm 5 mps 754 mmHg 68%
    07:00 +12°C° 0 mm 5 mps 755 mmHg 67%
    08:00 +12°C° 0 mm 5 mps 756 mmHg 66%
    09:00 +12°C° 0 mm 5 mps 756 mmHg 60%
    10:00 +13°C° 0 mm 5 mps 757 mmHg 53%
    11:00 +14°C° 0 mm 6 mps 758 mmHg 47%
    12:00 +14°C° 0 mm 5 mps 758 mmHg 47%
    13:00 +14°C° 0 mm 5 mps 758 mmHg 47%
    14:00 +14°C° 0 mm 4 mps 758 mmHg 47%
    15:00 +13°C° 0 mm 4 mps 758 mmHg 49%
    16:00 +12°C° 0 mm 3 mps 758 mmHg 52%
    17:00 +12°C° 0 mm 2 mps 758 mmHg 55%
    18:00 +10°C° 0 mm 2 mps 758 mmHg 58%
    19:00 +11°C° 0 mm 1 mps 758 mmHg 61%
    20:00 +10°C° 0 mm 1 mps 759 mmHg 63%
    21:00 +10°C° 0 mm 1 mps 759 mmHg 64%
    22:00 +10°C° 0 mm 1 mps 759 mmHg 64%
    23:00 +10°C° 0 mm 1 mps 759 mmHg 64%

    Day after tomorrow, 27 May, Monday

    Time Temperature Precipitation Wind Pressure Humidity
    00:00 +9°C° 0 mm 2 mps 759 mmHg 68%
    01:00 +8°C° 0 mm 2 mps 758 mmHg 71%
    02:00 +8°C° 0 mm 3 mps 758 mmHg 74%
    03:00 +8°C° 0 mm 3 mps 758 mmHg 76%
    04:00 +8°C° 0 mm 3 mps 757 mmHg 79%
    05:00 +8°C° 0 mm 3 mps 757 mmHg 81%
    06:00 +7°C° 0 mm 4 mps 757 mmHg 81%
    07:00 +7°C° 0 mm 4 mps 757 mmHg 81%
    08:00 +7°C° 0 mm 5 mps 757 mmHg 82%
    09:00 +9°C° 0 mm 6 mps 757 mmHg 72%
    10:00 +11°C° 0 mm 6 mps 756 mmHg 62%
    11:00 +14°C° 0 mm 7 mps 756 mmHg 52%
    12:00 +15°C° 0 mm 7 mps 756 mmHg 45%
    13:00 +17°C° 0 mm 7 mps 755 mmHg 38%
    14:00 +18°C° 0 mm 8 mps 754 mmHg 32%
    15:00 +16°C° 0 mm 6 mps 754 mmHg 34%
    16:00 +15°C° 0 mm 5 mps 754 mmHg 37%
    17:00 +14°C° 0 mm 3 mps 754 mmHg 39%
    18:00 +13°C° 0 mm 3 mps 754 mmHg 40%
    19:00 +13°C° 0 mm 3 mps 754 mmHg 40%
    20:00 +12°C° 0 mm 3 mps 754 mmHg 41%
    21:00 +12°C° 0 mm 3 mps 754 mmHg 42%
    22:00 +11°C° 0 mm 3 mps 754 mmHg 43%
    23:00 +11°C° 0 mm 4 mps 754 mmHg 45%

    28 May, Tuesday

    Time Temperature Precipitation Wind Pressure Humidity
    00:00 +11°C° 0 mm 4 mps 754 mmHg 48%
    01:00 +10°C° 0 mm 3 mps 754 mmHg 51%
    02:00 +10°C° 0 mm 3 mps 754 mmHg 55%
    03:00 +10°C° 0 mm 3 mps 755 mmHg 58%
    04:00 +10°C° 0 mm 3 mps 755 mmHg 61%
    05:00 +10°C° 0 mm 3 mps 755 mmHg 65%
    06:00 +10°C° 0 mm 4 mps 756 mmHg 63%
    07:00 +10°C° 0 mm 4 mps 756 mmHg 61%
    08:00 +10°C° 0 mm 4 mps 757 mmHg 59%
    09:00 +11°C° 0 mm 4 mps 757 mmHg 52%
    10:00 +12°C° 0 mm 5 mps 758 mmHg 45%
    11:00 +13°C° 0 mm 5 mps 758 mmHg 38%
    12:00 +13°C° 0 mm 5 mps 758 mmHg 38%
    13:00 +13°C° 0 mm 5 mps 758 mmHg 38%
    14:00 +13°C° 0 mm 5 mps 757 mmHg 37%
    15:00 +12°C° 0 mm 4 mps 758 mmHg 41%
    16:00 +12°C° 0 mm 4 mps 758 mmHg 44%
    17:00 +11°C° 0 mm 3 mps 759 mmHg 47%
    18:00 +10°C° 0 mm 3 mps 759 mmHg 49%
    19:00 +10°C° 0 mm 3 mps 760 mmHg 51%
    20:00 +10°C° 0 mm 2 mps 760 mmHg 53%
    21:00 +9°C° 0 mm 2 mps 760 mmHg 56%
    22:00 +9°C° 0 mm 2 mps 760 mmHg 59%
    23:00 +8°C° 0 mm 2 mps 761 mmHg 62%

    29 May, Wednesday

    Time Temperature Precipitation Wind Pressure Humidity
    00:00 +8°C° 0 mm 2 mps 761 mmHg 64%
    01:00 +8°C° 0 mm 2 mps 761 mmHg 66%
    02:00 +8°C° 0 mm 2 mps 761 mmHg 68%
    03:00 +7°C° 0 mm 2 mps 761 mmHg 69%
    04:00 +7°C° 0 mm 2 mps 761 mmHg 69%
    05:00 +7°C° 0 mm 2 mps 761 mmHg 70%
    06:00 +8°C° 0 mm 2 mps 761 mmHg 68%
    07:00 +8°C° 0 mm 2 mps 761 mmHg 66%
    08:00 +8°C° 0 mm 2 mps 762 mmHg 64%
    09:00 +9°C° 0 mm 2 mps 762 mmHg 59%
    10:00 +10°C° 0 mm 3 mps 762 mmHg 54%
    11:00 +11°C° 0 mm 4 mps 762 mmHg 49%
    12:00 +11°C° 0 mm 4 mps 762 mmHg 49%
    13:00 +11°C° 0 mm 4 mps 762 mmHg 49%
    14:00 +12°C° 0 mm 4 mps 762 mmHg 49%
    15:00 +11°C° 0 mm 3 mps 762 mmHg 52%
    16:00 +10°C° 0 mm 3 mps 762 mmHg 56%
    17:00 +9°C° 0 mm 3 mps 762 mmHg 59%
    18:00 +9°C° 0 mm 2 mps 762 mmHg 61%
    19:00 +8°C° 0 mm 2 mps 763 mmHg 64%
    20:00 +7°C° 0 mm 2 mps 763 mmHg 67%
    21:00 +7°C° 0 mm 2 mps 763 mmHg 68%
    22:00 +6°C° 0 mm 2 mps 763 mmHg 69%
    23:00 +7°C° 0 mm 1 mps 763 mmHg 70%

    30 May, Thursday

    Time Temperature Precipitation Wind Pressure Humidity
    00:00 +7°C° 0 mm 1 mps 763 mmHg 71%
    01:00 +7°C° 0 mm 1 mps 763 mmHg 71%
    02:00 +7°C° 0 mm 1 mps 763 mmHg 72%
    03:00 +6°C° 0 mm 1 mps 763 mmHg 73%
    04:00 +6°C° 0 mm 1 mps 762 mmHg 74%
    05:00 +5°C° 0 mm 2 mps 762 mmHg 74%
    06:00 +5°C° 0 mm 2 mps 762 mmHg 75%
    07:00 +5°C° 0 mm 2 mps 763 mmHg 75%
    08:00 +5°C° 0 mm 2 mps 763 mmHg 75%
    09:00 +7°C° 0 mm 2 mps 763 mmHg 67%
    10:00 +9°C° 0 mm 3 mps 762 mmHg 59%
    11:00 +11°C° 0 mm 3 mps 762 mmHg 51%
    12:00 +12°C° 0 mm 3 mps 762 mmHg 49%
    13:00 +12°C° 0 mm 4 mps 761 mmHg 47%
    14:00 +13°C° 0 mm 4 mps 761 mmHg 45%
    15:00 +12°C° 0 mm 3 mps 760 mmHg 51%
    16:00 +11°C° 0 mm 3 mps 760 mmHg 56%
    17:00 +10°C° 0 mm 3 mps 760 mmHg 62%
    18:00 +10°C° 0 mm 3 mps 759 mmHg 65%
    19:00 +10°C° 0 mm 3 mps 759 mmHg 69%
    20:00 +10°C° 0 mm 4 mps 759 mmHg 72%
    21:00 +8°C° 0 mm 4 mps 759 mmHg 75%
    22:00 +8°C° 0 mm 3 mps 759 mmHg 78%
    23:00 +8°C° 0 mm 3 mps 758 mmHg 82%
    Show more